Roros Lufthavn, Norway

6:06 AM CET on December 10, 2019 (GMT +0100)
Roros

Weather History for ENRO - October, 2019

Change the Weather History Date:

Monday, October 28, 2019

  Actual Average Record
Temperature  
Mean Temperature 30 °F -  
Max Temperature 33 °F 35 °F 55 °F (2014)
Min Temperature 28 °F 27 °F -4 °F (2012)
Degree Days  
Heating Degree Days 34    
Moisture  
Dew Point 29 °F    
Average Humidity 94    
Maximum Humidity 100    
Minimum Humidity 81    
Precipitation  
Precipitation 0.00 in - - ()
Sea Level Pressure  
Sea Level Pressure 29.92 in    
Wind  
Wind Speed 5 mph ()    
Max Wind Speed 15 mph    
Max Gust Speed 28 mph    
Visibility 5.8 miles    
Events Rain , Snow    
Averages and records for this station are not official NWS values.
T = Trace of Precipitation, MM = Missing Value Source: Averaged Metar Reports

Daily Weather History Graph

Daily Weather History Graph

Search for Another Location

Airport or City:

Astronomy

Oct. 28, 2019 Rise Set
Actual Time 7:36 AM CET 4:19 PM CET
Civil Twilight 6:47 AM CET 5:08 PM CET
Nautical Twilight 5:54 AM CET 6:01 PM CET
Astronomical Twilight 5:01 AM CET 6:53 PM CET
Moon 7:23 AM CET (10/28) 4:58 PM CET (10/28)
Length of Visible Light 10h 20m
Length of Day
8h 43m
New Moon, 0% of the Moon is Illuminated
Oct 28
New Moon
Nov 4
First Quarter
Nov 12
Full
Nov 19
Last Quarter
Nov 26
New

Hourly Weather History & Observations

Time (CET) Temp. Windchill Dew Point Humidity Pressure Visibility Wind Dir Wind Speed Gust Speed Precip Events Conditions
12:20 AM 30.2 °F 25.4 °F 28.4 °F 93% 29.74 in 5.6 mi WSW 4.6 mph - N/A Snow Light Snow Showers
12:50 AM 30.2 °F 25.4 °F 28.4 °F 93% 29.77 in 6.2 mi WNW 4.6 mph - N/A Snow Light Snow
1:20 AM 30.2 °F 25.4 °F 28.4 °F 93% 29.77 in 6.2 mi NNW 4.6 mph - N/A Snow Light Snow Showers
1:50 AM 28.4 °F - 28.4 °F 100% 29.77 in 6.2 mi Variable 2.3 mph - N/A Snow Light Snow Showers
2:20 AM 28.4 °F - 28.4 °F 100% 29.77 in 6.2 mi Variable 2.3 mph - N/A Rain , Snow Light Freezing Rain
2:50 AM 28.4 °F 23.3 °F 28.4 °F 100% 29.80 in 6.2 mi WSW 4.6 mph - N/A Snow Light Snow Showers
3:20 AM 30.2 °F 26.7 °F 28.4 °F 93% 29.80 in 6.2 mi West 3.5 mph - N/A Rain , Snow Light Freezing Rain
4:50 AM 30.2 °F 25.4 °F 28.4 °F 93% 29.83 in 6.2 mi WSW 4.6 mph - N/A Snow Light Snow
5:20 AM 30.2 °F 24.3 °F 28.4 °F 93% 29.83 in 6.2 mi West 5.8 mph - N/A Rain , Snow Light Freezing Rain
5:50 AM 30.2 °F 25.4 °F 30.2 °F 100% 29.83 in 1.7 mi West 4.6 mph - N/A Snow Light Snow
6:20 AM 30.2 °F 26.7 °F 30.2 °F 100% 29.83 in 5.0 mi SW 3.5 mph - N/A Snow Light Snow
6:50 AM 30.2 °F 23.4 °F 30.2 °F 100% 29.86 in 5.6 mi SW 6.9 mph - N/A Snow Light Snow Showers
7:20 AM 30.2 °F 25.4 °F 30.2 °F 100% 29.86 in 6.2 mi NW 4.6 mph - N/A Snow Light Snow Showers
7:50 AM 30.2 °F 23.4 °F 28.4 °F 93% 29.86 in 6.2 mi NW 6.9 mph - N/A   Mostly Cloudy
8:20 AM 28.4 °F 23.3 °F 28.4 °F 100% 29.89 in 6.2 mi SSW 4.6 mph - N/A Snow Light Snow Showers
8:50 AM 30.2 °F 25.4 °F 30.2 °F 100% 29.89 in 5.6 mi WSW 4.6 mph - N/A Snow Light Snow Showers
9:20 AM 30.2 °F 24.3 °F 30.2 °F 100% 29.89 in 6.2 mi SW 5.8 mph - N/A Snow Light Snow Showers
10:20 AM 30.2 °F 23.4 °F 30.2 °F 100% 29.92 in 6.2 mi SW 6.9 mph - N/A   Mostly Cloudy
10:50 AM 32.0 °F 27.5 °F 30.2 °F 93% 29.92 in 6.2 mi West 4.6 mph - N/A Rain , Snow Light Rain Showers
11:20 AM 32.0 °F 26.4 °F 30.2 °F 93% 29.92 in 6.2 mi NW 5.8 mph - N/A Rain , Snow Light Rain Showers
12:50 PM 33.8 °F 28.6 °F 30.2 °F 87% 29.95 in 6.2 mi West 5.8 mph - N/A Rain , Snow Light Rain Showers
1:20 PM 33.8 °F 27.0 °F 30.2 °F 87% 29.95 in 6.2 mi WNW 8.1 mph - N/A Rain , Snow Light Rain Showers
1:50 PM 33.8 °F 28.6 °F 30.2 °F 87% 29.95 in 6.2 mi NW 5.8 mph - N/A   Mostly Cloudy
2:20 PM 33.8 °F 26.4 °F 28.4 °F 81% 29.98 in 6.2 mi West 9.2 mph - N/A Rain Light Rain Showers
3:20 PM 32.0 °F 22.5 °F 30.2 °F 93% 29.98 in 6.2 mi WNW 12.7 mph - N/A Snow Light Snow Showers
3:50 PM 32.0 °F 23.6 °F 30.2 °F 93% 29.98 in 3.1 mi WNW 10.4 mph - N/A Snow Light Snow Showers
4:20 PM 32.0 °F 23.6 °F 30.2 °F 93% 29.98 in 6.2 mi WNW 10.4 mph - N/A Snow Light Snow Showers
5:20 PM 32.0 °F 26.4 °F 28.4 °F 87% 30.01 in 6.2 mi NW 5.8 mph - N/A Snow Light Snow Showers
5:50 PM 30.2 °F 19.8 °F 28.4 °F 93% 30.01 in 6.2 mi NW 13.8 mph - N/A Snow Light Snow Showers
6:20 PM 32.0 °F 21.6 °F 28.4 °F 87% 30.01 in 6.2 mi NW 15.0 mph 27.6 mph N/A Snow Light Snow Showers
7:20 PM 32.0 °F 22.5 °F 30.2 °F 93% 30.04 in 6.2 mi NW 12.7 mph - N/A Snow Light Snow Showers
8:20 PM 32.0 °F 22.5 °F 30.2 °F 93% 30.06 in 3.1 mi NW 12.7 mph - N/A Snow Light Snow Showers
8:50 PM 32.0 °F 23.0 °F 30.2 °F 93% 30.06 in - NW 11.5 mph - N/A Snow Light Snow
9:50 PM 32.0 °F 23.0 °F 30.2 °F 93% 30.09 in 6.2 mi NW 11.5 mph - N/A   Overcast
10:20 PM 32.0 °F 25.6 °F 30.2 °F 93% 30.09 in 5.6 mi WNW 6.9 mph - N/A Snow Light Snow Showers
10:50 PM 32.0 °F 28.7 °F 28.4 °F 87% 30.09 in 6.2 mi Variable 3.5 mph - N/A Snow Light Snow Showers
11:20 PM 32.0 °F 24.8 °F 28.4 °F 87% 30.12 in 6.2 mi NNW 8.1 mph - N/A   Overcast